Theta_e
328 329 333 339 342 340 339 340 346 350 348 351 352 352 347 343 343 347 344 345 341 343 344 346 344 344 346 345 345 344 344 344 346 344 343 344 341 344 342 345 346 345 348 342
329 329 331 339 339 340 339 339 346 345 344 345 343 352 350 345 345 345 343 346 343 344 346 345 345 345 346 345 345 347 346 346 345 348 345 345 344 343 343 345 343 337 347 347
329 329 329 332 333 333 332 336 343 345 341 345 350 348 346 345 346 344 345 347 344 345 344 340 344 345 346 346 347 347 348 348 343 347 345 349 347 345 344 346 346 344 347 348
328 328 329 328 329 330 333 336 338 340 347 349 340 351 345 340 342 346 346 346 345 345 343 347 347 345 346 347 346 348 348 348 343 349 348 346 347 348 345 345 346 346 348 352
327 326 327 327 326 330 334 335 336 338 344 344 342 343 347 341 344 350 346 345 346 348 346 343 342 345 346 348 348 348 349 348 348 346 348 346 349 347 346 349 347 346 347 352
326 328 326 326 327 330 331 331 334 336 338 340 342 341 351 352 346 345 346 347 345 343 346 343 340 340 347 348 348 349 347 345 348 342 348 346 347 343 347 348 346 347 349 342
325 329 327 326 329 329 329 331 342 343 342 341 340 336 347 342 342 345 345 348 348 347 342 346 346 347 345 344 347 349 345 337 344 344 340 342 344 349 346 346 347 346 349 347
328 329 327 328 329 332 331 333 346 345 350 342 340 339 342 342 342 342 346 346 345 345 343 346 344 346 345 347 349 350 350 341 338 348 346 338 343 345 349 347 346 346 348 347
330 330 329 330 331 334 334 334 334 337 337 341 339 337 336 337 341 343 346 346 345 343 346 345 346 347 348 344 349 349 350 347 342 347 349 347 340 344 345 348 342 346 347 347
330 333 331 330 331 331 330 332 333 332 334 339 339 339 341 339 338 339 344 345 346 345 345 344 346 347 346 346 350 348 348 349 347 350 349 347 348 342 344 346 348 341 348 348
329 331 333 332 329 329 329 330 331 332 334 339 343 339 339 339 337 338 343 341 344 347 346 346 346 346 347 348 346 352 350 350 349 347 351 348 349 346 342 346 349 347 343 342
328 329 335 333 331 330 330 332 331 333 334 335 341 340 338 338 336 341 343 344 346 346 346 346 346 346 348 348 348 345 350 355 350 350 352 350 348 351 349 345 345 346 346 343
329 328 330 336 334 331 331 332 331 333 335 338 339 340 339 336 337 338 342 344 345 347 347 347 348 345 344 346 351 351 347 338 349 350 350 350 350 350 350 351 347 350 349 346
329 328 331 336 337 335 333 332 331 332 333 337 340 340 339 338 338 337 342 343 343 346 347 346 346 349 349 348 346 347 352 348 342 352 350 351 351 353 353 351 352 349 349 349
330 330 331 334 335 335 333 332 331 331 331 332 335 339 338 342 339 338 338 341 342 344 347 347 347 349 350 351 351 350 349 351 353 351 351 352 353 351 350 351 352 351 350 349
331 335 332 333 335 335 333 331 330 329 329 329 332 336 340 338 339 341 339 340 341 342 344 346 349 352 350 350 351 353 351 351 352 346 349 349 340 348 350 349 350 350 351 350
332 332 336 334 335 336 337 331 330 329 329 330 331 338 341 339 337 336 341 339 340 341 342 344 347 349 351 349 343 343 348 347 348 344 339 350 352 350 350 349 349 350 350 348
335 337 336 333 334 338 335 332 331 331 330 330 330 331 335 338 339 339 340 340 340 342 341 343 344 348 347 349 348 341 339 340 337 333 340 340 346 351 350 350 351 352 352 352
332 337 335 335 334 335 334 332 332 331 331 330 330 331 334 336 339 339 338 340 341 341 340 340 342 344 344 345 346 348 348 348 348 347 341 337 337 344 351 351 352 352 352 353
331 333 335 335 336 339 334 332 331 331 332 332 332 333 334 337 339 339 338 338 338 338 337 336 337 339 339 340 341 343 345 346 346 348 350 346 334 348 349 350 351 353 354 352
331 334 335 335 335 334 332 332 331 333 335 332 332 333 337 340 339 337 336 336 335 335 335 336 336 336 335 337 340 341 344 342 340 342 344 345 343 348 349 348 348 350 351 352
335 334 334 334 338 335 332 332 332 337 333 332 331 332 338 337 337 336 335 333 332 332 331 332 334 339 337 338 339 340 341 344 342 340 343 343 344 346 347 347 348 347 349 350
334 331 336 335 333 338 331 332 330 330 332 331 332 332 337 336 334 331 332 331 330 331 332 333 334 335 338 337 340 338 339 341 336 341 341 347 344 348 347 343 344 346 347 347
333 329 332 337 337 335 332 332 331 330 330 331 330 331 333 334 333 331 331 330 332 332 332 332 332 333 336 337 338 340 339 338 338 342 342 345 345 346 344 343 343 344 344 344
332 333 333 334 335 333 332 331 330 330 330 331 331 331 333 333 331 331 330 331 332 332 332 331 331 333 335 336 337 340 337 334 339 343 342 342 344 344 343 342 341 338 338 339
333 335 333 335 334 335 330 331 330 330 331 330 331 331 333 331 331 331 332 332 332 332 331 333 334 336 336 335 339 337 333 336 336 339 341 340 338 342 340 341 339 338 337 337
Wind_Speed
17 12 15 22 12 23 20 18 17 10 14 11 13 12 11 21 20 27 15 13 23 17 18 21 21 23 18 19 17 18 17 16 11 10 10 11 12 11 11 12 10 11 8 10
15 14 18 19 17 20 17 14 8 6 9 10 11 7 7 18 18 20 24 20 16 15 26 8 23 25 22 22 19 18 18 17 16 10 13 12 13 12 11 11 11 13 11 9
17 15 13 13 6 9 11 3 7 6 6 7 19 4 6 6 11 19 20 23 16 10 16 23 26 23 23 23 19 22 20 17 18 13 16 9 15 15 13 14 10 13 12 8
15 15 4 10 12 10 14 7 10 12 11 5 6 4 4 8 13 18 22 20 26 32 24 25 22 26 22 22 21 20 21 21 19 16 10 12 9 10 13 11 7 9 11 9
12 13 14 10 13 12 5 5 9 5 12 7 12 7 6 9 13 19 22 26 27 25 30 29 21 11 22 25 20 22 21 18 17 21 16 14 13 15 15 15 15 11 13 12
19 6 10 12 13 12 9 3 9 11 11 11 11 4 1 10 8 18 22 27 25 26 29 27 24 19 10 22 21 22 20 21 21 19 19 16 11 10 12 14 17 13 10 14
13 11 10 15 12 6 11 14 2 5 4 8 9 6 8 12 14 24 33 24 25 24 24 27 22 24 22 26 28 26 19 19 23 18 21 18 16 11 9 14 12 12 14 12
14 13 14 10 14 7 12 15 7 3 6 5 16 4 8 18 11 13 9 15 14 20 21 20 24 38 21 26 31 28 23 20 22 20 17 19 21 21 16 16 14 16 14 16
11 12 18 14 15 12 8 10 10 16 18 11 11 10 12 9 12 13 11 21 25 29 19 17 16 29 36 23 34 35 26 21 21 22 20 18 21 21 17 14 16 15 15 20
19 11 12 15 12 10 11 12 9 8 4 1 6 5 8 7 7 7 8 23 17 19 19 16 17 20 28 22 30 30 28 25 20 23 19 21 21 21 20 19 16 21 20 8
16 10 6 11 9 13 9 11 11 13 4 5 4 4 11 9 3 7 20 33 28 14 12 11 15 16 19 27 21 26 26 23 18 19 22 17 21 19 24 22 18 21 25 21
13 14 13 15 13 13 17 12 9 7 5 6 11 8 13 11 7 15 15 16 14 10 9 8 7 12 15 17 25 22 28 27 19 21 23 21 17 17 18 22 24 22 23 17
11 13 10 7 12 15 8 9 11 9 4 7 9 9 10 11 10 11 18 15 10 9 7 5 11 9 17 17 15 18 33 16 18 24 26 25 23 22 23 21 18 20 20 20
5 15 14 6 11 14 13 10 13 14 9 6 9 9 13 12 14 6 19 16 11 10 8 8 7 6 8 11 20 21 12 29 28 35 28 30 26 22 22 22 22 22 25 25
8 15 17 9 15 17 7 9 6 8 10 11 5 10 2 5 9 14 13 16 14 11 9 7 9 6 6 8 11 16 23 19 20 32 30 28 28 24 23 22 23 22 23 25
13 14 15 15 10 19 15 7 7 8 12 10 10 6 16 17 16 16 12 14 13 11 11 8 6 6 6 7 13 13 22 22 24 23 20 29 23 26 26 25 24 25 26 26
16 13 12 16 13 19 24 11 10 10 9 6 7 12 13 8 5 8 13 10 12 12 10 11 9 6 6 7 10 15 19 20 19 8 19 24 14 22 27 24 24 25 29 28
16 16 13 13 12 9 15 6 2 8 3 3 6 2 8 11 11 6 8 8 11 11 9 7 7 9 6 7 6 10 12 12 11 11 17 11 14 19 21 23 25 27 28 29
8 10 13 13 12 11 17 10 6 8 8 8 8 8 8 9 10 8 6 10 10 11 7 7 5 4 2 1 2 6 9 11 14 14 18 21 22 20 21 23 25 29 30 31
9 15 10 9 11 14 10 16 15 9 6 8 8 4 7 8 6 6 13 10 10 9 7 6 4 4 4 5 6 8 11 12 16 16 16 19 25 21 21 23 24 26 28 31
8 8 13 10 10 11 7 14 6 6 4 5 11 9 11 8 11 18 13 9 7 6 5 5 6 6 7 7 9 9 12 17 17 15 14 16 21 23 23 24 25 25 27 29
18 11 10 8 18 11 9 10 11 8 7 4 2 7 23 20 17 14 11 8 4 2 4 6 9 10 9 8 8 8 11 13 16 13 15 18 16 21 21 21 19 22 25 27
12 3 11 14 9 12 17 7 15 7 6 6 6 10 21 16 10 12 9 6 1 0 2 5 7 9 8 11 11 12 15 21 17 11 16 15 15 19 19 19 21 19 22 24
10 17 15 12 13 11 13 8 13 12 11 11 8 7 11 9 13 10 8 5 2 2 4 6 9 11 11 9 11 11 17 21 13 13 15 13 14 17 16 16 17 17 18 17
4 5 17 18 20 12 27 34 13 14 13 11 12 10 11 10 7 9 8 4 0 2 6 9 11 12 12 12 12 12 19 16 12 13 15 14 16 15 16 15 15 15 15 16
12 6 8 6 29 12 11 6 11 12 16 11 9 11 10 8 9 10 6 4 0 4 11 11 9 10 10 11 10 17 19 15 15 13 13 15 14 15 15 14 15 16 19 20
Wind_Direction
214 234 247 55 55 157 178 224 244 162 195 140 217 217 184 191 203 205 228 268 171 177 175 162 169 163 157 164 165 176 179 177 177 159 146 158 159 175 172 184 208 212 205 203
223 234 256 138 203 191 206 185 183 115 164 107 295 233 210 178 198 203 188 224 163 154 181 142 161 166 170 167 171 177 189 192 172 185 189 181 183 185 180 215 223 204 203 213
242 220 226 272 236 233 247 237 62 182 215 199 191 92 11 322 252 212 205 168 180 176 167 200 190 179 172 167 175 184 187 203 185 178 204 162 195 172 180 206 236 184 201 198
232 269 255 277 264 243 257 11 164 187 176 225 231 219 162 273 274 196 212 198 186 202 193 209 230 178 174 179 178 194 194 203 176 165 198 189 175 171 196 201 210 213 187 191
236 229 254 237 244 240 267 180 270 264 191 204 240 243 207 224 254 199 208 208 195 197 186 202 223 218 194 176 181 190 193 198 181 174 181 191 202 190 189 204 201 208 193 194
256 239 215 236 235 233 272 293 248 250 250 236 243 263 144 182 158 272 253 205 200 200 189 203 185 204 184 171 176 191 188 197 184 192 188 192 196 184 179 180 202 199 226 210
227 236 229 235 219 202 235 247 84 321 280 313 292 256 163 178 190 196 223 187 197 200 203 178 175 212 196 198 198 190 190 191 189 203 200 189 194 209 192 194 195 193 218 226
206 189 199 200 232 174 224 257 119 233 227 284 285 114 113 176 152 110 149 167 162 195 194 188 190 203 165 185 205 191 194 187 194 198 205 201 196 195 193 190 203 217 228 218
249 232 176 184 231 213 321 236 198 203 231 207 197 102 121 130 128 128 145 163 176 205 194 203 212 181 170 190 195 189 195 193 196 199 204 207 203 199 200 202 214 229 239 227
270 129 179 201 206 246 276 316 283 239 283 96 65 5 118 150 128 148 101 37 174 179 179 199 193 180 181 185 185 199 201 201 199 193 208 210 206 206 196 201 218 222 236 235
259 281 211 214 191 235 209 237 253 274 334 222 33 268 147 125 143 136 130 121 240 148 169 194 193 203 194 194 186 187 199 204 194 188 207 211 208 213 203 204 213 224 237 231
237 265 178 225 208 212 247 244 239 240 270 271 175 152 108 120 167 106 100 88 81 100 129 164 171 201 199 206 210 215 230 183 190 198 213 208 219 214 213 216 220 232 234 241
205 244 257 259 222 200 245 256 279 278 234 290 287 131 135 161 142 158 122 115 121 120 124 144 167 202 230 232 197 206 209 248 242 209 204 213 209 211 211 221 215 218 235 238
230 244 239 226 44 290 213 224 244 265 271 151 30 183 172 162 148 135 124 133 143 134 142 129 150 173 216 239 239 234 205 199 214 203 206 209 214 212 212 214 226 215 223 237
237 244 263 187 199 261 276 195 204 235 287 303 93 125 180 132 148 157 148 142 142 147 153 159 146 165 205 224 245 229 224 223 214 207 207 207 213 218 225 219 220 228 227 231
223 243 260 271 82 315 237 249 263 262 278 271 283 131 163 148 136 151 162 153 156 168 155 155 147 171 197 223 229 248 223 231 243 245 225 211 213 225 229 231 228 232 236 238
216 239 240 250 187 189 256 226 244 255 257 265 268 114 124 143 152 161 149 173 167 173 161 161 166 177 195 222 235 240 240 240 249 262 234 245 194 228 237 241 240 242 244 243
198 222 249 250 252 231 265 237 140 4 335 274 272 236 166 150 128 143 159 181 166 153 162 150 159 148 206 210 223 240 239 244 255 275 249 257 252 249 248 249 249 249 247 244
272 231 229 245 246 248 264 176 189 204 239 252 257 272 115 124 130 145 179 163 162 151 151 169 151 173 222 135 203 254 274 279 280 277 262 257 267 264 258 254 254 255 249 244
179 241 282 238 221 256 253 17 205 150 231 234 235 181 151 126 195 175 144 148 149 155 168 180 197 218 250 256 252 260 263 264 262 257 259 258 259 260 254 253 253 252 250 252
261 256 211 257 225 244 187 157 168 196 84 51 169 159 137 104 99 114 130 137 143 164 197 221 232 256 261 259 260 261 270 273 270 269 270 273 259 253 255 255 254 256 257 257
236 237 219 229 249 221 133 129 170 117 136 107 100 161 117 121 132 141 155 151 158 214 276 271 266 240 242 259 270 271 275 275 283 257 260 262 260 249 250 252 253 252 254 257
242 274 268 245 239 179 219 213 168 163 154 143 158 161 143 150 163 161 154 129 130 275 334 304 290 284 273 266 259 267 269 272 290 279 259 255 250 239 252 256 251 256 258 259
192 229 264 293 247 94 11 187 185 170 186 161 176 180 166 160 168 185 156 136 94 330 326 311 300 287 283 271 267 255 271 288 279 276 270 261 238 244 257 260 255 252 252 261
262 213 254 265 275 166 186 221 193 178 159 166 175 177 165 174 175 155 124 120 204 328 311 302 291 279 275 273 281 262 278 286 277 275 270 255 243 254 261 256 254 258 258 259
318 241 198 248 281 174 158 291 187 175 161 176 167 155 149 178 165 153 145 141 316 289 301 302 286 279 279 273 277 284 282 272 282 272 257 258 264 248 249 259 258 259 261 258